TimePST,TemperatureF,Dew PointF,Humidity,Sea Level PressureIn,VisibilityMPH,Wind Direction,Wind SpeedMPH,Gust SpeedMPH,PrecipitationIn,Events,Conditions,WindDirDegrees,DateUTC
12:53 AM,33.1,30.9,92,30.03,10.0,East,6.9,-,N/A,,Clear,80,2013-02-20 08:53:00
1:53 AM,30.9,30.9,100,30.04,10.0,Calm,Calm,-,0.01,,Clear,0,2013-02-20 09:53:00
2:53 AM,30.9,30.0,96,30.05,10.0,Calm,Calm,-,N/A,,Clear,0,2013-02-20 10:53:00
3:53 AM,30.9,30.9,100,30.06,10.0,East,3.5,-,N/A,,Clear,80,2013-02-20 11:53:00
4:53 AM,30.0,30.0,100,30.07,10.0,ESE,3.5,-,N/A,,Clear,110,2013-02-20 12:53:00
5:53 AM,28.9,28.0,96,30.08,10.0,Calm,Calm,-,N/A,,Clear,0,2013-02-20 13:53:00
6:53 AM,30.0,28.9,96,30.11,10.0,East,4.6,-,N/A,,Clear,90,2013-02-20 14:53:00
7:53 AM,30.9,30.0,96,30.13,6.0,Calm,Calm,-,N/A,,Clear,0,2013-02-20 15:53:00
9:53 AM,43.0,36.0,76,30.14,10.0,ESE,3.5,-,N/A,,Clear,120,2013-02-20 17:53:00
10:35 AM,44.6,37.4,76,30.14,4.0,WNW,6.9,-,N/A,,Haze,290,2013-02-20 18:35:00
10:53 AM,46.0,37.0,71,30.17,8.0,NW,6.9,-,N/A,,Partly Cloudy,320,2013-02-20 18:53:00
11:53 AM,50.0,36.0,59,30.17,10.0,NNW,11.5,-,N/A,,Clear,340,2013-02-20 19:53:00
12:53 PM,48.9,37.0,64,30.15,10.0,NW,15.0,-,N/A,,Clear,320,2013-02-20 20:53:00
1:53 PM,48.9,37.0,64,30.15,10.0,NNW,15.0,-,N/A,,Mostly Cloudy,330,2013-02-20 21:53:00
2:53 PM,48.0,37.9,68,30.15,10.0,NNW,12.7,-,N/A,,Scattered Clouds,330,2013-02-20 22:53:00
3:53 PM,46.9,39.0,74,30.14,10.0,NW,10.4,-,N/A,,Overcast,320,2013-02-20 23:53:00
5:53 PM,46.0,39.9,79,30.15,10.0,North,5.8,-,N/A,,Overcast,350,2013-02-21 01:53:00
6:53 PM,45.0,39.9,82,30.17,10.0,NNE,4.6,-,N/A,,Overcast,20,2013-02-21 02:53:00
7:53 PM,44.1,39.0,82,30.17,10.0,Calm,Calm,-,N/A,,Overcast,0,2013-02-21 03:53:00
8:53 PM,43.0,39.9,89,30.16,10.0,Calm,Calm,-,N/A,,Overcast,0,2013-02-21 04:53:00
9:53 PM,43.0,39.9,89,30.18,10.0,NE,3.5,-,N/A,,Overcast,50,2013-02-21 05:53:00
11:53 PM,42.1,39.9,92,30.19,10.0,Calm,Calm,-,0.00,,Overcast,0,2013-02-21 07:53:00